Dewpoint
0 -1 -1 -1 -2 -3 -3 -3 -4 -6 -9 -8 -7 -8 -9 -10 -11 -11 -11 -10 -10 -8 -7 -6 -7 -8 -8 -7 -7 -7 -7 -7 -5 -6 -7 -8 -9 -10 -11 -9 -5 -4 -3
-2 -3 -0 -1 -2 -4 -5 -4 -8 -7 -7 -8 -8 -9 -11 -12 -12 -11 -11 -10 -10 -9 -9 -9 -10 -12 -16 -12 -9 -8 -9 -9 -9 -8 -8 -8 -9 -9 -10 -10 -10 -6 -5
-4 -2 -1 -1 -1 -2 -3 -6 -7 -7 -7 -9 -11 -12 -12 -12 -12 -11 -11 -11 -11 -11 -11 -11 -12 -13 -15 -16 -12 -9 -9 -8 -8 -8 -9 -9 -9 -10 -11 -11 -12 -11 -8
-7 -3 -4 -4 -2 -2 -4 -4 -5 -6 -8 -11 -12 -12 -13 -11 -11 -11 -11 -10 -10 -11 -11 -10 -11 -11 -13 -14 -13 -10 -10 -9 -9 -8 -9 -11 -13 -12 -11 -11 -12 -10 -11
-10 -8 -7 -4 -2 -2 -1 -4 -3 -6 -10 -11 -11 -12 -11 -11 -11 -10 -10 -9 -10 -10 -10 -12 -14 -15 -11 -10 -9 -8 -8 -7 -8 -9 -10 -12 -14 -15 -15 -12 -10 -9 -7
-11 -11 -9 -5 -3 -3 -1 -2 -5 -7 -9 -10 -12 -11 -10 -10 -9 -9 -9 -9 -10 -12 -13 -14 -16 -14 -11 -10 -10 -9 -9 -8 -9 -9 -10 -10 -10 -11 -11 -13 -11 -10 -9
-11 -10 -6 -5 -6 -5 -5 -3 -5 -5 -8 -11 -11 -10 -10 -9 -8 -8 -10 -12 -11 -11 -12 -14 -15 -13 -13 -13 -12 -11 -10 -9 -9 -9 -9 -9 -10 -12 -13 -11 -11 -11 -10
-11 -9 -8 -6 -7 -6 -4 -3 -5 -8 -10 -11 -10 -10 -10 -9 -10 -13 -11 -10 -10 -11 -13 -14 -14 -12 -12 -12 -13 -12 -12 -12 -12 -12 -13 -13 -13 -13 -12 -11 -9 -9 -9
-9 -8 -8 -6 -6 -4 -4 -4 -8 -10 -10 -10 -10 -11 -10 -10 -12 -11 -10 -11 -11 -12 -13 -14 -14 -14 -13 -12 -12 -11 -11 -12 -13 -12 -12 -10 -10 -10 -10 -9 -10 -10 -12
-9 -8 -7 -6 -5 -6 -7 -7 -10 -10 -11 -11 -11 -10 -11 -12 -11 -10 -11 -11 -12 -13 -13 -14 -14 -12 -11 -12 -11 -12 -12 -12 -11 -11 -11 -12 -13 -13 -12 -12 -12 -9 -9
-8 -7 -8 -7 -6 -7 -7 -9 -10 -11 -11 -10 -10 -10 -12 -14 -13 -13 -12 -12 -12 -13 -13 -13 -13 -13 -12 -12 -12 -12 -12 -12 -12 -12 -13 -13 -12 -12 -11 -12 -12 -12 -11
-7 -7 -6 -7 -6 -7 -7 -9 -10 -10 -10 -10 -10 -12 -13 -14 -16 -17 -15 -14 -13 -13 -13 -13 -13 -13 -13 -12 -12 -12 -12 -12 -12 -11 -11 -11 -10 -10 -9 -9 -9 -9 -9
-7 -7 -6 -7 -8 -9 -9 -9 -9 -10 -9 -10 -11 -11 -13 -13 -16 -15 -15 -15 -14 -14 -13 -13 -13 -13 -13 -12 -12 -12 -12 -11 -11 -11 -11 -11 -10 -10 -10 -9 -9 -9 -9
-8 -8 -8 -8 -9 -8 -8 -9 -9 -9 -9 -10 -10 -12 -12 -13 -15 -14 -14 -14 -14 -14 -14 -14 -14 -13 -13 -13 -13 -13 -12 -12 -12 -12 -12 -11 -10 -10 -10 -9 -9 -8 -8
-6 -7 -9 -11 -10 -10 -9 -8 -8 -9 -10 -10 -11 -11 -12 -13 -14 -13 -14 -14 -14 -14 -14 -14 -14 -14 -14 -14 -14 -13 -13 -13 -13 -12 -12 -11 -11 -11 -10 -9 -8 -8 -8
-5 -8 -10 -11 -10 -8 -7 -7 -8 -9 -10 -11 -11 -11 -12 -12 -12 -13 -14 -14 -14 -14 -14 -15 -15 -15 -15 -14 -14 -14 -13 -13 -13 -12 -12 -12 -11 -10 -10 -10 -9 -9 -8
-6 -7 -8 -10 -10 -9 -8 -8 -8 -11 -10 -11 -11 -10 -11 -12 -12 -14 -14 -15 -17 -16 -15 -15 -15 -15 -15 -15 -15 -14 -13 -14 -13 -13 -12 -12 -11 -10 -11 -11 -10 -10 -10
-6 -7 -8 -7 -7 -10 -9 -9 -9 -10 -10 -11 -11 -10 -11 -11 -12 -16 -14 -15 -20 -23 -20 -17 -16 -15 -16 -16 -15 -14 -14 -14 -14 -13 -12 -12 -11 -11 -11 -12 -11 -10 -10
-6 -7 -7 -7 -7 -9 -9 -9 -9 -10 -10 -11 -11 -11 -11 -11 -13 -16 -15 -15 -15 -25 -26 -21 -17 -17 -17 -17 -17 -15 -15 -15 -15 -14 -13 -12 -12 -12 -11 -11 -12 -11 -11
-7 -7 -7 -7 -8 -10 -9 -9 -10 -10 -10 -10 -11 -11 -11 -11 -12 -14 -15 -15 -15 -17 -30 -29 -23 -23 -24 -23 -22 -20 -21 -24 -21 -15 -13 -13 -13 -12 -12 -12 -12 -12 -12
-7 -7 -7 -7 -8 -10 -9 -10 -10 -10 -10 -10 -11 -11 -12 -12 -12 -13 -13 -16 -16 -16 -19 -33 -32 -31 -30 -29 -28 -29 -30 -31 -30 -22 -15 -14 -14 -13 -12 -12 -13 -12 -12
-7 -8 -8 -8 -9 -9 -9 -9 -10 -10 -10 -11 -11 -11 -11 -12 -12 -12 -13 -14 -16 -17 -17 -21 -32 -34 -32 -31 -31 -31 -31 -31 -32 -30 -21 -18 -17 -14 -13 -13 -13 -14 -14
-9 -11 -10 -9 -9 -10 -10 -9 -10 -10 -10 -10 -11 -11 -11 -12 -12 -12 -12 -13 -15 -16 -19 -21 -24 -27 -30 -31 -31 -31 -30 -30 -31 -32 -30 -23 -22 -21 -16 -15 -14 -13 -15
-10 -11 -12 -10 -10 -10 -10 -10 -10 -10 -10 -10 -11 -11 -11 -11 -12 -12 -13 -13 -14 -15 -19 -24 -26 -31 -33 -31 -30 -30 -30 -29 -29 -30 -31 -30 -28 -27 -24 -19 -16 -14 -15
-8 -8 -9 -9 -9 -10 -10 -10 -10 -10 -10 -10 -11 -11 -11 -11 -11 -12 -12 -13 -13 -14 -17 -21 -22 -22 -25 -26 -27 -28 -29 -29 -28 -29 -31 -30 -32 -31 -32 -29 -26 -22 -22
-8 -8 -10 -10 -10 -10 -10 -10 -10 -9 -10 -10 -11 -11 -11 -11 -12 -12 -12 -13 -13 -13 -14 -16 -19 -19 -16 -15 -15 -16 -22 -27 -26 -27 -31 -32 -33 -34 -33 -33 -32 -31 -31
Wind_Speed
27 30 30 26 20 19 24 26 27 29 28 23 21 21 22 23 23 25 25 24 23 22 19 17 19 19 21 26 29 26 27 26 25 27 23 19 18 22 20 16 18 18 10
27 32 28 25 23 27 32 26 24 22 17 16 19 24 24 23 23 22 22 23 23 20 19 22 25 31 34 28 24 26 25 24 26 29 26 24 19 17 17 14 14 14 13
29 28 29 26 23 31 30 19 17 16 20 20 17 19 22 24 26 26 25 26 24 26 31 34 34 32 32 31 27 26 28 25 23 24 27 26 23 21 23 21 17 20 18
32 33 36 36 26 25 15 13 13 17 19 19 17 19 25 25 27 25 27 29 33 34 36 34 35 36 35 33 30 26 26 28 30 30 29 30 31 30 23 22 22 17 18
29 32 36 31 25 19 29 15 16 20 15 15 19 22 23 23 26 27 29 32 34 39 39 38 38 37 28 21 21 21 21 24 25 24 27 27 28 28 26 24 21 19 16
34 37 37 27 26 30 27 16 13 14 13 17 21 20 19 22 27 30 32 34 39 34 31 37 36 27 21 21 23 24 22 23 22 22 23 24 25 24 24 26 30 27 23
31 32 27 34 37 31 16 15 20 19 13 18 17 18 21 28 25 27 35 33 30 30 33 33 31 24 21 21 24 24 24 20 20 20 20 22 22 21 23 21 21 22 22
31 30 33 32 35 22 14 14 17 13 15 16 16 21 25 24 29 30 28 30 31 30 31 31 27 26 24 24 24 24 24 26 24 22 24 27 26 26 22 21 21 22 23
26 29 34 29 25 20 19 13 10 15 14 15 20 24 27 30 27 29 30 30 27 31 28 33 27 26 21 21 23 21 22 21 19 17 16 20 21 23 24 23 25 26 29
26 29 31 28 24 22 18 12 13 10 16 19 22 24 28 28 28 26 28 28 26 29 34 29 21 17 17 19 18 20 21 20 19 20 21 21 24 26 25 25 26 24 23
27 31 27 23 19 18 14 14 14 18 19 19 22 27 26 28 26 28 26 24 29 31 27 24 22 20 20 19 21 21 19 17 17 19 20 19 16 15 15 16 20 27 30
28 28 24 21 17 16 16 17 16 17 18 22 25 29 27 25 25 25 25 25 21 23 23 20 17 20 19 18 12 11 12 12 9 8 9 9 9 10 10 11 13 15 18
33 27 21 20 13 14 13 13 16 19 21 24 26 26 26 27 26 28 24 21 21 21 19 16 17 19 13 11 13 11 10 9 8 7 8 8 9 9 9 8 9 11 14
29 24 22 18 15 15 16 20 17 18 21 24 23 23 25 26 29 30 27 23 24 21 16 16 17 11 11 14 13 10 10 9 7 8 8 7 7 6 6 5 8 7 6
24 24 19 16 17 16 14 13 15 19 22 21 20 20 24 25 29 23 23 23 21 20 16 15 17 16 14 16 16 12 12 12 9 7 6 7 7 7 5 4 7 2 6
25 21 18 17 15 13 10 14 17 18 18 16 18 20 23 24 28 24 20 19 15 18 14 14 16 17 16 15 14 15 16 15 10 9 8 8 8 8 8 6 6 6 5
17 19 19 16 15 13 15 16 21 13 13 14 16 19 23 24 28 27 18 21 16 14 14 14 15 16 16 14 13 14 17 17 10 9 9 9 9 8 7 8 5 6 3
18 17 17 18 18 17 15 12 11 14 15 15 16 18 21 22 28 22 17 19 20 16 15 13 14 15 16 14 12 12 11 12 12 9 9 10 10 9 9 8 7 6 5
15 13 16 19 18 18 11 10 13 13 12 14 14 17 20 20 24 18 19 20 21 19 17 14 12 14 15 14 11 10 11 12 11 7 9 9 9 10 10 8 7 6 6
14 13 15 15 17 18 12 12 14 13 13 13 14 17 19 20 22 21 22 20 20 17 16 15 13 14 14 14 13 12 13 14 12 6 6 8 6 9 11 10 9 8 8
13 16 18 19 19 15 11 13 14 15 14 13 14 17 18 19 20 21 23 21 20 17 15 14 15 14 13 14 14 13 14 14 14 10 5 6 6 5 7 7 7 7 8
16 19 22 23 13 12 12 13 16 13 13 14 16 17 16 17 19 21 22 21 19 17 16 13 14 14 14 14 14 14 14 14 13 11 8 8 7 3 5 5 6 7 7
17 15 13 12 12 12 13 14 16 13 13 15 14 14 16 17 18 19 21 19 19 18 17 15 14 13 12 13 14 15 15 15 15 14 12 10 10 7 5 7 5 8 8
11 12 12 13 11 12 13 13 14 15 15 14 13 13 17 17 19 19 19 19 19 19 18 15 14 14 13 12 11 13 14 14 14 13 13 11 11 9 6 7 3 7 10
15 16 15 16 14 12 13 14 14 16 16 15 14 14 15 16 17 17 19 19 18 19 16 17 16 14 13 13 12 12 12 13 14 13 12 11 10 9 8 7 7 7 9
18 19 20 21 18 16 16 17 16 15 18 16 15 15 16 16 15 16 18 17 18 19 18 19 16 14 15 14 13 11 11 12 12 12 12 11 10 8 7 8 7 7 7
Wind_Direction
320 327 328 316 301 295 294 291 299 304 312 334 336 331 327 326 326 326 326 325 325 322 318 315 316 318 320 314 312 313 308 307 303 305 303 306 300 299 302 300 312 328 296
328 326 321 309 288 292 296 287 301 303 311 317 317 319 321 322 324 323 319 314 309 305 304 303 304 308 310 299 300 303 300 301 289 287 293 288 287 287 294 291 288 284 315
327 311 306 295 289 294 297 300 281 291 299 307 313 315 316 316 318 316 313 304 302 305 305 307 306 308 305 302 296 299 291 286 288 287 287 289 288 287 285 290 295 281 273
332 314 317 316 305 291 269 268 297 309 307 312 315 319 316 314 312 307 303 299 302 309 310 308 308 306 304 301 291 291 291 288 283 275 285 293 291 288 290 294 288 293 276
335 332 328 311 298 275 298 266 288 310 307 308 317 324 319 311 308 302 301 303 307 311 310 312 312 308 301 297 299 294 284 277 282 284 285 288 291 292 284 276 277 281 263
332 333 329 313 307 312 305 316 292 276 299 317 323 325 314 311 309 306 304 306 311 316 322 319 319 312 304 290 288 288 286 280 276 273 279 284 287 288 290 281 278 284 289
340 334 332 332 330 323 315 298 267 295 309 324 317 316 316 315 310 312 312 316 319 319 320 323 321 319 313 304 295 294 289 286 279 279 277 279 283 284 295 288 283 281 280
329 325 326 330 329 318 316 293 301 330 326 311 316 319 319 312 318 323 321 320 317 319 321 322 319 317 315 310 303 294 291 287 286 283 282 286 286 284 280 278 282 282 277
320 321 326 330 323 310 307 316 322 321 307 318 323 323 324 331 327 322 321 321 319 320 322 325 319 313 314 310 307 300 294 289 286 282 275 271 274 274 274 274 274 277 277
320 324 327 331 331 331 333 334 323 323 323 326 326 327 331 331 326 323 324 320 319 321 324 326 323 322 314 321 311 305 300 297 293 283 273 272 277 274 272 270 269 269 272
317 321 327 326 332 332 327 315 316 322 324 325 326 329 333 331 327 321 323 326 324 323 327 329 325 320 319 312 309 304 306 304 294 288 283 282 280 274 271 268 263 256 262
318 322 320 319 318 321 316 314 316 320 323 322 324 328 337 339 338 334 325 324 333 333 336 340 346 335 321 323 326 322 320 318 311 322 320 318 311 301 292 298 273 252 259
323 320 312 321 324 320 317 316 319 323 323 326 331 335 342 346 345 345 347 346 347 344 349 346 338 338 355 359 5 351 344 341 359 353 328 318 314 305 297 295 284 278 266
321 324 320 313 311 311 310 313 315 314 322 330 334 339 344 346 349 354 349 351 350 350 353 347 351 4 14 10 2 1 3 1 349 330 328 331 334 327 311 305 299 302 304
315 321 315 310 309 311 317 310 310 317 324 330 336 342 345 348 355 353 348 350 346 342 349 355 5 11 11 15 14 23 20 11 7 359 349 344 343 345 2 354 32 320 331
308 318 318 318 310 309 298 299 307 314 324 336 341 344 345 348 355 345 348 351 347 344 355 8 8 9 10 9 14 24 27 12 17 25 23 7 360 21 18 11 3 1 2
301 314 317 331 331 308 305 306 305 325 337 336 340 339 341 347 347 340 350 354 354 354 10 10 7 6 6 9 12 20 27 14 10 22 30 28 28 29 20 5 357 357 351
296 307 311 318 317 325 295 312 327 326 332 337 337 333 336 341 339 340 348 350 3 2 3 1 2 360 1 3 5 9 8 9 16 28 38 42 46 30 16 12 10 11 11
297 295 305 303 303 318 303 311 315 318 322 324 330 326 335 334 339 343 351 357 358 0 2 0 359 356 357 358 358 356 354 359 3 18 35 41 46 43 30 17 9 7 349
291 287 297 294 305 313 297 299 312 314 317 319 324 325 327 331 338 349 351 348 351 355 2 3 358 360 3 3 6 5 8 11 16 21 28 27 33 43 38 24 12 6 358
278 281 287 290 297 302 296 300 305 310 312 319 322 324 328 333 337 345 344 342 343 349 355 0 359 359 5 5 7 12 15 17 18 18 10 8 7 30 24 27 9 355 350
277 279 279 286 284 286 293 297 308 310 312 313 316 322 325 329 331 336 336 336 339 346 349 350 354 353 355 358 360 3 7 8 10 14 9 6 356 4 354 338 3 352 340
294 294 287 288 291 286 284 288 306 308 307 310 308 320 327 327 327 327 330 333 335 337 339 342 341 345 346 351 350 351 356 359 0 358 358 356 354 2 341 337 331 334 350
300 311 302 284 289 280 283 288 295 301 303 307 307 315 316 318 320 323 327 327 331 333 332 337 336 334 334 335 342 339 344 348 349 349 347 346 347 353 340 342 316 320 332
290 299 300 299 286 275 277 282 287 294 297 300 297 301 304 310 314 319 324 327 328 330 331 329 334 329 330 331 339 337 341 342 341 342 342 340 339 345 339 342 331 324 336
279 287 292 294 289 264 271 275 278 280 288 292 293 292 294 299 303 309 318 322 323 326 328 329 326 324 325 326 325 326 330 333 337 341 341 340 336 337 338 337 344 340 340
Height
1543 1540 1537 1534 1530 1527 1524 1519 1517 1515 1513 1511 1509 1506 1504 1501 1498 1494 1491 1487 1484 1481 1479 1476 1473 1471 1468 1466 1463 1461 1458 1457 1453 1450 1452 1451 1450 1450 1449 1448 1446 1443 1443
1539 1536 1533 1529 1525 1521 1518 1514 1510 1509 1508 1504 1503 1502 1500 1497 1494 1491 1487 1484 1480 1477 1475 1472 1469 1466 1464 1462 1459 1457 1455 1452 1449 1445 1446 1445 1445 1445 1445 1444 1444 1444 1443
1536 1532 1529 1525 1519 1517 1514 1511 1507 1504 1504 1501 1495 1495 1494 1492 1489 1486 1483 1480 1476 1473 1470 1466 1463 1460 1457 1455 1453 1449 1447 1446 1444 1442 1439 1440 1440 1441 1439 1439 1439 1439 1440
1532 1527 1523 1518 1514 1510 1505 1504 1505 1502 1500 1498 1494 1489 1489 1487 1484 1481 1477 1474 1470 1466 1462 1459 1455 1452 1449 1447 1445 1442 1440 1438 1437 1435 1434 1433 1434 1435 1436 1435 1433 1434 1434
1528 1525 1519 1514 1509 1506 1503 1498 1496 1495 1493 1493 1490 1486 1484 1481 1478 1475 1471 1467 1463 1458 1454 1450 1446 1442 1440 1439 1437 1434 1432 1430 1429 1428 1427 1427 1427 1427 1428 1428 1428 1429 1430
1525 1520 1514 1509 1505 1501 1498 1494 1493 1491 1487 1488 1485 1480 1479 1476 1473 1469 1465 1460 1456 1451 1446 1442 1437 1433 1432 1429 1428 1426 1426 1423 1422 1421 1421 1421 1421 1422 1422 1422 1421 1422 1422
1519 1516 1511 1506 1501 1497 1491 1493 1491 1487 1483 1484 1480 1476 1475 1472 1468 1463 1458 1453 1449 1445 1440 1435 1430 1427 1425 1422 1420 1419 1418 1417 1416 1416 1415 1415 1415 1416 1416 1415 1415 1415 1416
1516 1511 1507 1502 1497 1493 1488 1488 1487 1483 1481 1479 1475 1473 1471 1468 1463 1456 1452 1448 1444 1439 1435 1430 1425 1421 1419 1416 1413 1411 1410 1410 1410 1410 1409 1408 1409 1409 1410 1410 1410 1409 1409
1510 1506 1502 1498 1494 1489 1486 1482 1483 1480 1477 1475 1472 1469 1465 1461 1456 1451 1446 1442 1438 1433 1429 1425 1420 1416 1413 1410 1407 1405 1403 1402 1403 1402 1402 1401 1402 1403 1403 1404 1403 1404 1402
1506 1502 1498 1494 1490 1487 1483 1481 1480 1477 1474 1470 1468 1465 1460 1456 1452 1447 1442 1437 1432 1428 1423 1418 1415 1412 1409 1406 1403 1401 1398 1398 1396 1396 1396 1396 1396 1396 1397 1397 1398 1397 1397
1502 1498 1494 1490 1488 1485 1482 1480 1477 1473 1470 1467 1465 1462 1457 1452 1448 1443 1438 1433 1428 1423 1418 1414 1410 1407 1404 1401 1399 1395 1392 1390 1389 1388 1388 1388 1387 1387 1388 1388 1388 1389 1390
1497 1492 1489 1486 1484 1481 1479 1476 1472 1470 1467 1465 1462 1458 1454 1449 1445 1439 1434 1430 1425 1420 1415 1411 1407 1404 1400 1397 1394 1392 1390 1388 1385 1385 1384 1384 1383 1383 1383 1383 1382 1383 1383
1492 1488 1484 1482 1480 1477 1475 1472 1470 1467 1464 1461 1458 1454 1450 1446 1441 1436 1430 1426 1422 1417 1414 1410 1406 1402 1398 1395 1392 1390 1388 1386 1384 1383 1382 1381 1381 1380 1379 1379 1378 1378 1378
1486 1484 1480 1478 1475 1474 1472 1469 1467 1464 1461 1458 1455 1451 1448 1443 1438 1432 1427 1423 1420 1416 1412 1409 1405 1401 1398 1395 1391 1389 1387 1385 1383 1382 1381 1380 1378 1377 1376 1376 1375 1375 1374
1482 1479 1476 1474 1471 1469 1468 1466 1464 1461 1459 1456 1453 1450 1445 1441 1436 1432 1428 1423 1419 1415 1411 1408 1404 1400 1397 1395 1392 1389 1387 1385 1383 1381 1380 1378 1377 1376 1375 1374 1373 1372 1372
1477 1475 1472 1470 1467 1466 1465 1464 1462 1459 1456 1454 1451 1447 1444 1440 1435 1432 1427 1423 1419 1414 1411 1408 1405 1402 1399 1396 1393 1391 1388 1385 1383 1381 1379 1378 1376 1375 1374 1373 1372 1371 1370
1472 1471 1469 1466 1464 1463 1462 1460 1457 1456 1454 1452 1449 1445 1442 1439 1435 1430 1426 1422 1418 1414 1411 1408 1405 1402 1400 1397 1394 1392 1389 1386 1384 1381 1379 1378 1376 1375 1373 1372 1372 1371 1370
1468 1467 1464 1463 1461 1460 1458 1456 1455 1453 1451 1449 1447 1444 1441 1438 1435 1430 1425 1422 1417 1414 1411 1408 1405 1403 1400 1397 1395 1392 1390 1387 1384 1382 1380 1378 1376 1375 1374 1373 1371 1370 1369
1464 1463 1461 1459 1458 1456 1455 1454 1452 1451 1449 1447 1445 1442 1440 1437 1434 1429 1425 1421 1417 1414 1410 1408 1405 1403 1400 1397 1395 1392 1390 1387 1384 1382 1380 1378 1376 1376 1375 1373 1371 1370 1369
1460 1458 1457 1456 1454 1453 1452 1451 1449 1448 1446 1445 1443 1440 1438 1435 1432 1428 1424 1421 1418 1414 1411 1408 1405 1403 1400 1397 1395 1392 1389 1386 1384 1382 1380 1379 1377 1376 1374 1373 1371 1369 1368
1456 1454 1453 1452 1450 1449 1448 1447 1446 1444 1443 1441 1440 1438 1435 1432 1429 1426 1423 1420 1417 1414 1411 1408 1406 1403 1400 1397 1395 1393 1390 1387 1384 1382 1380 1379 1377 1375 1374 1372 1371 1369 1367
1452 1450 1449 1447 1446 1445 1444 1443 1442 1440 1439 1438 1436 1434 1432 1430 1427 1424 1422 1419 1416 1413 1411 1408 1406 1403 1400 1398 1395 1393 1390 1388 1385 1383 1381 1379 1377 1375 1374 1372 1370 1368 1366
1447 1445 1444 1443 1442 1441 1440 1440 1438 1437 1436 1434 1433 1431 1429 1427 1425 1422 1420 1417 1415 1412 1410 1407 1405 1402 1400 1398 1395 1393 1390 1387 1385 1382 1380 1378 1377 1374 1373 1371 1370 1368 1366
1443 1442 1440 1439 1438 1436 1436 1435 1435 1433 1432 1430 1429 1427 1426 1424 1422 1420 1417 1414 1412 1410 1408 1405 1403 1401 1399 1396 1395 1392 1390 1387 1385 1382 1380 1377 1376 1374 1372 1370 1369 1367 1365
1439 1438 1436 1435 1433 1432 1432 1431 1430 1429 1428 1426 1425 1423 1422 1420 1419 1417 1414 1412 1409 1407 1405 1403 1401 1399 1396 1394 1393 1390 1388 1386 1384 1381 1379 1377 1375 1373 1371 1369 1368 1366 1364
1434 1433 1432 1430 1428 1427 1427 1426 1425 1425 1423 1422 1420 1419 1418 1416 1414 1413 1411 1409 1406 1404 1402 1400 1398 1396 1394 1392 1390 1388 1386 1384 1382 1380 1377 1375 1373 1371 1370 1368 1367 1365 1363